[[{"header":{"parameterUnit":"m.s-1","parameterCategory":1,"la1":30.2991,"la2":30.254,"lo1":-89.0895,"lo2":-89.0444,"dy":0.0017,"dx":0.0017,"nx":28,"ny":28,"refTime":"2024-03-12T03:00:00:Z","depth":0,"parameterNumber":2,"parameterNumberName":"U-component_of_WINDS"},"data":[0,0,0,0,0,0,0,0,0,0,0,0,0,0,0,0,0,0,0,0,0,0,0,0,0,0,0,0,0,0,0,0,0,0,0,0,0,0,0,0,0,0,0,0,0,0,0,0,0,0,0,0,0,0,0,0,0,0,-1.5628,-1.5628,0,-1.5645,-1.5646,-1.5646,-1.5642,-1.5641,-1.5641,-1.5641,-1.5657,-1.5658,-1.5659,0,0,0,0,0,0,0,0,0,0,0,0,0,-1.5588,-1.5588,-1.5627,-1.5628,-1.5628,-1.5645,-1.5646,-1.5646,-1.5642,-1.5641,-1.5641,-1.5641,-1.5657,-1.5658,-1.5659,0,0,0,0,0,0,0,0,0,0,0,0,0,-1.5605,-1.5589,-1.5627,-1.5628,-1.5628,-1.5645,-1.5646,-1.5646,-1.5642,-1.5641,-1.5641,-1.564,-1.5657,-1.5658,-1.5659,-1.5676,0,0,-1.5662,-1.5663,0,0,0,0,0,0,0,0,-1.5604,-1.5607,-1.5628,-1.5628,-1.5628,-1.5641,-1.5638,-1.5656,-1.5642,-1.5637,-1.5641,-1.564,-1.5652,-1.5654,-1.5658,-1.5677,-1.5677,-1.5662,-1.5663,-1.5664,-1.5664,0,0,0,0,0,0,0,-1.5603,-1.5606,-1.5635,-1.5628,-1.5628,-1.5627,-1.5629,-1.5641,-1.5647,-1.5637,-1.5637,-1.5639,-1.5652,-1.5657,-1.5658,-1.5678,-1.5662,-1.5663,-1.5664,-1.5665,-1.571,-1.5711,0,0,0,0,0,0,-1.5602,-1.5605,-1.5634,-1.5635,-1.5615,-1.5628,-1.563,-1.5637,-1.5647,-1.5648,-1.564,-1.5639,-1.5655,-1.5657,-1.5659,-1.5679,-1.5664,-1.5665,-1.5665,-1.571,-1.571,-1.5711,0,0,0,0,0,0,-1.5601,-1.5604,-1.5633,-1.562,-1.5623,-1.5629,-1.5637,-1.5638,-1.5643,-1.5649,-1.5649,-1.5643,-1.5655,-1.5657,-1.5672,-1.5679,-1.5665,-1.5666,-1.5709,-1.571,-1.5711,-1.5719,0,0,0,0,0,0,-1.56,-1.5604,-1.5611,-1.562,-1.5624,-1.5646,-1.5638,-1.5639,-1.5645,-1.5644,-1.5653,-1.5653,-1.5655,-1.567,-1.5673,-1.5681,-1.5667,-1.5709,-1.571,-1.5711,-1.5718,-1.572,-1.5722,0,0,0,0,0,-1.5598,-1.5612,-1.5612,-1.5615,-1.5633,-1.5647,-1.5649,-1.5651,-1.5646,-1.5652,-1.5656,-1.5653,-1.5678,-1.5672,-1.5675,-1.5683,-1.5708,-1.5709,-1.571,-1.5717,-1.572,-1.5722,0,0,0,0,0,0,-1.5604,-1.5614,-1.5613,-1.563,-1.5638,-1.5646,-1.5655,-1.5653,-1.5662,-1.5661,-1.5662,-1.5664,-1.5678,-1.5682,-1.5675,-1.5699,-1.5692,-1.5694,-1.5696,-1.5699,-1.57,-1.5699,-1.5668,0,0,0,0,0,-1.5607,-1.5618,-1.5626,-1.564,-1.5644,-1.5649,-1.5655,-1.5656,-1.5663,-1.5666,-1.5671,-1.5678,-1.5687,-1.5693,-1.5702,-1.5719,-1.572,-1.5726,-1.5728,-1.5729,-1.5731,-1.5739,-1.5741,-1.5715,-1.5715,-1.5715,0,0,-1.5614,-1.562,-1.5627,-1.5642,-1.5647,-1.5658,-1.5651,-1.5663,-1.567,-1.5668,-1.5681,-1.5685,-1.5693,-1.5708,-1.5715,-1.5712,-1.5738,-1.5731,-1.5732,-1.5733,-1.574,-1.5743,-1.5745,-1.5716,-1.5716,-1.5716,0,0,-1.5631,-1.5638,-1.565,-1.5656,-1.5666,-1.5669,-1.5672,-1.568,-1.5683,-1.5697,-1.5695,-1.5703,-1.572,-1.5725,-1.573,-1.575,-1.5747,-1.5752,-1.5762,-1.577,-1.5772,-1.5774,-1.578,-1.5782,-1.5754,-1.5754,-1.5754,0,-1.5638,-1.5654,-1.5657,-1.5668,-1.5674,-1.5673,-1.5685,-1.5691,-1.5702,-1.5706,-1.5703,-1.5723,-1.5728,-1.5744,-1.5749,-1.5753,-1.5756,-1.5751,-1.5771,-1.5773,-1.5775,-1.5781,-1.5783,-1.5755,-1.5754,-1.5754,-1.5754,0,-1.5662,-1.5673,-1.5682,-1.5694,-1.5701,-1.5713,-1.5716,-1.5723,-1.5724,-1.5727,-1.5741,-1.5747,-1.5757,-1.5761,-1.5761,-1.5777,-1.5775,-1.5771,-1.5764,-1.5778,-1.5783,-1.5786,-1.5755,-1.5755,-1.5755,-1.5755,0,0,-1.5682,-1.5695,-1.5699,-1.5704,-1.5714,-1.5722,-1.5734,-1.5744,-1.575,-1.5758,-1.5767,-1.5781,-1.5777,-1.5783,-1.5784,-1.5791,-1.5805,-1.5787,-1.5787,-1.5789,-1.5822,-1.5824,-1.5827,-1.5804,-1.5804,-1.5805,-1.5821,0,-1.57,-1.5721,-1.5724,-1.5742,-1.5752,-1.5751,-1.5761,-1.5768,-1.5771,-1.5779,-1.5783,-1.5792,-1.5788,-1.5791,-1.5798,-1.5802,-1.5812,-1.5801,-1.5811,-1.5812,-1.5809,-1.583,-1.5832,-1.5848,-1.5824,-1.5824,-1.5824,0,-1.5723,-1.5732,-1.5752,-1.576,-1.5765,-1.5774,-1.5783,-1.5792,-1.5799,-1.5801,-1.5807,-1.5807,-1.5818,-1.5811,-1.5826,-1.5819,-1.5823,-1.5826,-1.5826,-1.5826,-1.5818,-1.583,-1.5853,-1.5855,-1.5828,-1.5827,-1.5827,0,-1.5735,-1.5753,-1.5766,-1.5771,-1.5781,-1.5787,-1.5792,-1.5799,-1.5805,-1.5813,-1.5817,-1.5826,-1.5831,-1.5837,-1.5839,-1.5834,-1.5854,-1.5847,-1.5855,-1.5855,-1.5859,-1.5858,-1.5881,-1.5863,-1.5863,-1.5863,-1.5863,0,-1.5754,-1.5766,-1.5772,-1.578,-1.5793,-1.5796,-1.5808,-1.5812,-1.5819,-1.5827,-1.5827,-1.5835,-1.5837,-1.5846,-1.5847,-1.5859,-1.5861,-1.5862,-1.5863,-1.5862,-1.5862,-1.5864,-1.5863,-1.5864,-1.5863,-1.5863,-1.5863,0,-1.577,-1.5774,-1.5789,-1.5798,-1.58,-1.5809,-1.5816,-1.5824,-1.5827,-1.5838,-1.5841,-1.5846,-1.5855,-1.5858,-1.587,-1.5871,-1.5884,-1.5884,-1.5882,-1.5881,-1.5889,-1.5888,-1.5914,-1.5917,-1.5897,-1.5897,-1.5898,0,-1.5781,-1.579,-1.58,-1.5806,-1.5811,-1.5821,-1.5827,-1.583,-1.5836,-1.5845,-1.5852,-1.5861,-1.5869,-1.5884,-1.5888,-1.5897,-1.5896,-1.5905,-1.5897,-1.5896,-1.5895,-1.5894,-1.5895,-1.5906,-1.5906,-1.5906,-1.5906,0,-1.5801,-1.5803,-1.5812,-1.5822,-1.5829,-1.5837,-1.5844,-1.5849,-1.5853,-1.586,-1.587,-1.5876,-1.5888,-1.5897,-1.5906,-1.591,-1.5908,-1.5909,-1.5911,-1.591,-1.5908,-1.5908,-1.5885,-1.5908,-1.5908,-1.5908,-1.5908,-1.5908,-1.5814,-1.5822,-1.583,-1.584,-1.5846,-1.5853,-1.5861,-1.5865,-1.5874,-1.5884,-1.5885,-1.5896,-1.5902,-1.5914,-1.5918,-1.5926,-1.5924,-1.5927,-1.5928,-1.5928,-1.5928,-1.5908,-1.5928,-1.5928,-1.5928,-1.5928,-1.5928,0,-1.5833,-1.5838,-1.5848,-1.5858,-1.5866,-1.5865,-1.5873,-1.5879,-1.5889,-1.5896,-1.5904,-1.5915,-1.5924,-1.5929,-1.5937,-1.5943,-1.5942,-1.5945,-1.5944,-1.5945,-1.5931,-1.5928,-1.5945,-1.5945,-1.5945,-1.5945,-1.5945,-1.5945,-1.5844,-1.5857,-1.586,-1.5875,-1.588,-1.5891,-1.5896,-1.5902,-1.5907,-1.592,-1.5927,-1.5931,-1.5937,-1.5946,-1.5954,-1.5955,-1.5958,-1.596,-1.5961,-1.5948,-1.5946,-1.5944,-1.5941,-1.5961,-1.5961,-1.5975,-1.5975,-1.5975]},{"header":{"parameterUnit":"m.s-1","parameterCategory":1,"la1":30.2991,"la2":30.254,"lo1":-89.0895,"lo2":-89.0444,"dy":0.0017,"dx":0.0017,"nx":28,"ny":28,"refTime":"2024-03-12T03:00:00:Z","depth":0,"parameterNumber":3,"parameterNumberName":"V-component_of_WINDS"},"data":[0,0,0,0,0,0,0,0,0,0,0,0,0,0,0,0,0,0,0,0,0,0,0,0,0,0,0,0,0,0,0,0,0,0,0,0,0,0,0,0,0,0,0,0,0,0,0,0,0,0,0,0,0,0,0,0,0,0,0.2967,0.2967,0,0.2971,0.2971,0.2971,0.2947,0.2947,0.2946,0.2945,0.2949,0.295,0.295,0,0,0,0,0,0,0,0,0,0,0,0,0,0.2939,0.2939,0.2967,0.2967,0.2967,0.2971,0.2971,0.2971,0.2948,0.2947,0.2946,0.2945,0.2949,0.295,0.2951,0,0,0,0,0,0,0,0,0,0,0,0,0,0.2948,0.2939,0.2967,0.2956,0.2955,0.2971,0.2971,0.2971,0.2948,0.2947,0.2946,0.2945,0.2949,0.295,0.2951,0.2978,0,0,0.2954,0.2954,0,0,0,0,0,0,0,0,0.2947,0.2949,0.2957,0.2957,0.2955,0.2958,0.2962,0.2973,0.2948,0.295,0.2945,0.2944,0.2953,0.2953,0.2956,0.2978,0.2978,0.2954,0.2955,0.2955,0.2956,0,0,0,0,0,0,0,0.2946,0.2948,0.2969,0.2957,0.2956,0.2951,0.2951,0.2964,0.2957,0.295,0.2948,0.2949,0.2952,0.2955,0.2956,0.2978,0.2954,0.2955,0.2956,0.2956,0.3023,0.3024,0,0,0,0,0,0,0.2947,0.2948,0.2968,0.2969,0.2949,0.2952,0.2952,0.2958,0.2957,0.2956,0.295,0.2948,0.2954,0.2955,0.2956,0.2989,0.2955,0.2956,0.2957,0.3022,0.3023,0.3025,0,0,0,0,0,0,0.2947,0.2949,0.2968,0.2958,0.296,0.2953,0.296,0.2959,0.2962,0.2957,0.2956,0.2955,0.2953,0.2955,0.2973,0.2989,0.2957,0.2958,0.3021,0.3023,0.3024,0.3054,0,0,0,0,0,0,0.2946,0.2949,0.2959,0.2958,0.296,0.2985,0.2961,0.2959,0.2964,0.2961,0.2961,0.296,0.2953,0.2971,0.2974,0.299,0.2959,0.3019,0.3022,0.3024,0.3051,0.3056,0.306,0,0,0,0,0,0.2945,0.2967,0.296,0.2963,0.2973,0.2986,0.2987,0.2978,0.2965,0.2976,0.2973,0.296,0.2986,0.2973,0.2976,0.2992,0.3018,0.3021,0.3023,0.3049,0.3055,0.306,0,0,0,0,0,0,0.297,0.2967,0.2959,0.2981,0.2984,0.2982,0.2994,0.2984,0.2991,0.2988,0.2977,0.2977,0.2997,0.2996,0.2982,0.3019,0.3,0.3003,0.3019,0.3024,0.3029,0.3029,0.2959,0,0,0,0,0,0.2978,0.2989,0.2985,0.3005,0.3007,0.3001,0.3006,0.2999,0.3001,0.3002,0.3,0.3003,0.3012,0.3018,0.3026,0.3051,0.3051,0.3063,0.3068,0.3072,0.3075,0.3089,0.3095,0.3033,0.3033,0.3033,0,0,0.2994,0.2994,0.3001,0.301,0.3011,0.3023,0.3002,0.3014,0.3023,0.3004,0.3021,0.302,0.3022,0.3044,0.3054,0.3044,0.3092,0.3075,0.3078,0.3079,0.3092,0.3098,0.3103,0.3035,0.3034,0.3034,0,0,0.3031,0.3031,0.3049,0.3051,0.3053,0.3049,0.3053,0.3053,0.3052,0.3069,0.3055,0.3065,0.3081,0.3083,0.3086,0.3125,0.3114,0.3128,0.3152,0.3166,0.3171,0.3175,0.319,0.3195,0.3131,0.3131,0.3131,0,0.3051,0.3068,0.3059,0.3073,0.3077,0.3061,0.3079,0.3081,0.3086,0.309,0.3079,0.3099,0.3099,0.3123,0.3132,0.3135,0.314,0.3128,0.3171,0.3175,0.3179,0.3193,0.3199,0.3133,0.3133,0.3133,0.3132,0,0.3093,0.3105,0.3119,0.3125,0.3131,0.3147,0.314,0.3148,0.314,0.3137,0.3156,0.3156,0.3164,0.3169,0.3161,0.3191,0.3185,0.3173,0.3154,0.3187,0.32,0.3205,0.3135,0.3135,0.3134,0.3134,0,0,0.3145,0.3146,0.3152,0.3155,0.3157,0.3166,0.3182,0.319,0.3197,0.3201,0.3214,0.3228,0.3218,0.3221,0.3214,0.3227,0.3259,0.3213,0.3213,0.3222,0.3293,0.3303,0.3309,0.3251,0.3252,0.3253,0.3293,0,0.3181,0.3208,0.32,0.3227,0.3239,0.3225,0.3238,0.3241,0.3239,0.3249,0.3246,0.3257,0.3241,0.3243,0.3255,0.3252,0.3273,0.3249,0.3264,0.3265,0.3265,0.3315,0.3326,0.3363,0.3298,0.3299,0.3299,0,0.3227,0.3234,0.3262,0.3264,0.3269,0.3281,0.3289,0.3298,0.3302,0.3299,0.3304,0.3295,0.3311,0.3291,0.3313,0.3298,0.3303,0.3303,0.3304,0.3306,0.3284,0.3319,0.3375,0.3381,0.3307,0.3306,0.3306,0,0.3263,0.3279,0.3299,0.3302,0.3304,0.3313,0.3314,0.3317,0.3323,0.333,0.3334,0.3342,0.3347,0.3354,0.3347,0.3334,0.337,0.335,0.3369,0.337,0.3378,0.3378,0.3436,0.3381,0.3381,0.338,0.338,0,0.3304,0.3323,0.3315,0.3327,0.3347,0.3339,0.3359,0.3358,0.3361,0.3373,0.3361,0.3372,0.3362,0.3373,0.3368,0.3388,0.339,0.3388,0.3387,0.339,0.339,0.3394,0.3392,0.3382,0.3382,0.3381,0.3381,0,0.3348,0.3344,0.3364,0.3365,0.3366,0.3381,0.3381,0.3393,0.339,0.3405,0.3408,0.3404,0.3416,0.341,0.3423,0.3419,0.3445,0.3439,0.3444,0.3443,0.3463,0.3461,0.3526,0.3534,0.3473,0.3473,0.3474,0,0.3375,0.3389,0.3392,0.3399,0.3402,0.3414,0.342,0.3412,0.342,0.3425,0.3436,0.3447,0.3456,0.3476,0.3474,0.3484,0.3479,0.3501,0.348,0.3484,0.3481,0.348,0.3482,0.3505,0.3506,0.3507,0.3507,0,0.3424,0.3422,0.3432,0.3442,0.345,0.3457,0.3463,0.347,0.3462,0.3471,0.3484,0.3491,0.3504,0.3515,0.3524,0.3525,0.3516,0.3514,0.3519,0.3522,0.3525,0.3525,0.3456,0.3512,0.3512,0.3511,0.3511,0.3511,0.3461,0.3473,0.3478,0.349,0.3494,0.35,0.3511,0.351,0.3521,0.3531,0.3526,0.3541,0.3545,0.3556,0.3559,0.3571,0.3562,0.3569,0.3571,0.3573,0.3576,0.3523,0.3572,0.3572,0.3572,0.3572,0.3571,0,0.3511,0.3513,0.3524,0.3534,0.3543,0.3533,0.354,0.3548,0.3562,0.3567,0.3576,0.3591,0.3603,0.3602,0.3613,0.3622,0.3618,0.3625,0.3625,0.3626,0.3583,0.3578,0.3629,0.3629,0.3629,0.3629,0.3629,0.3629,0.3537,0.3558,0.3556,0.3579,0.3581,0.3596,0.3601,0.3607,0.3611,0.3629,0.3638,0.3638,0.3641,0.3652,0.3662,0.3662,0.3667,0.3676,0.3674,0.3634,0.3628,0.3623,0.3618,0.3677,0.3677,0.3716,0.3716,0.3716]}]]